GOES 1 (SMS-C) 1 08366U 75100A 25353.46821242 -.00000022 00000+0 00000+0 0 9996 2 08366 5.0655 279.6955 0006405 343.0110 244.4038 1.00227033183269 GOES 2 1 10061U 77048A 25353.12313098 -.00000156 00000+0 00000+0 0 9990 2 10061 6.8486 294.8436 0012898 39.3229 150.5079 0.99401245 44485 GOES 3 1 10953U 78062A 25352.99099359 .00000126 00000+0 00000+0 0 9998 2 10953 7.3100 300.5770 0003305 320.4030 229.1806 0.99359438126744 GOES 4 1 11964U 80074A 25353.54767270 .00000109 00000+0 00000+0 0 9994 2 11964 8.3759 304.2856 0030088 102.0325 107.3824 0.99228573125654 GOES 5 1 12472U 81049A 25353.40610676 -.00000229 00000+0 00000+0 0 9998 2 12472 9.6812 316.8304 0005320 313.2777 249.5332 1.00231861121047 GOES 6 1 14050U 83041A 25353.35841470 -.00000133 00000+0 00000+0 0 9992 2 14050 10.4780 322.3850 0003814 278.3061 241.6950 1.00220703214210 GOES 7 1 17561U 87022A 25353.76033884 -.00000257 00000+0 00000+0 0 9999 2 17561 13.0901 338.8987 0002601 346.4127 4.9802 0.99906229125162 GOES 8 1 23051U 94022A 25353.80133244 -.00000199 00000+0 00000+0 0 9999 2 23051 14.2762 15.0345 0001704 356.7552 180.5090 0.98907855122355 GOES 9 1 23581U 95025A 25353.40160597 -.00000207 00000+0 00000+0 0 9998 2 23581 13.8018 15.8558 0007003 203.6431 330.8093 0.98800957110984 GOES 10 1 24786U 97019A 25353.20520480 .00000066 00000+0 00000+0 0 9992 2 24786 12.9135 22.3869 0032367 234.2666 311.9970 0.99123259104285 GOES 11 1 26352U 00022A 25353.24943102 .00000035 00000+0 00000+0 0 9991 2 26352 11.4209 48.1747 0006815 227.4505 159.0381 0.99039743 50694 GOES 12 1 26871U 01031A 25353.24527772 .00000057 00000+0 00000+0 0 9993 2 26871 11.8568 38.7791 0007894 275.3032 109.5607 0.99134726 88982 EWS-G1 (GOES 13) 1 29155U 06018A 25353.44516336 -.00000074 00000+0 00000+0 0 9997 2 29155 4.0655 78.6331 0060520 269.3066 190.2265 0.98786586 41475 GOES 14 1 35491U 09033A 25353.46720911 .00000018 00000+0 00000+0 0 9992 2 35491 1.2203 85.3391 0000513 179.3818 237.7883 1.00096833 4795 EWS-G2 (GOES 15) 1 36411U 10008A 25353.85700685 .00000062 00000+0 00000+0 0 9997 2 36411 0.8304 86.0831 0005466 177.2487 195.2571 1.00270915 57844 GOES 16 1 41866U 16071A 25353.67457470 -.00000067 00000+0 00000+0 0 9990 2 41866 0.0730 103.1255 0003019 162.2731 321.2972 1.00272202 33300 GOES 17 1 43226U 18022A 25353.47659434 -.00000158 00000+0 00000+0 0 9993 2 43226 0.4740 89.1739 0003082 191.1693 250.0534 1.00270964 28620 GOES 18 1 51850U 22021A 25353.54599450 .00000120 00000+0 00000+0 0 9996 2 51850 0.0096 238.6381 0001032 33.0454 236.2852 1.00280535 4794 GOES 19 1 60133U 24119A 25353.44359727 -.00000224 00000+0 00000+0 0 9996 2 60133 0.0077 262.8367 0001077 52.3942 217.5699 1.00271901 5165